Weather in Chuvashskaya Cheboksarka

Russia / Republic of Tatarstan     55°04′37″N   50°53′34″E
temp.,
°C
wind,
m/s
gust,
m/s
humid.,
%
clouds,
%
prec.,
mm/h
press.,
hPa
HPBL,
m
10 may, mon
mon1000:00+16se31166100 0.0 1015255
03:00+16sse486657 0.1 1016135
06:00+16ese4863100 0.0 1017177
09:00+20se5848100 0.0 1018496
12:00+23se5538100 0.0 10191797
15:00+24ese453440 0.0 10192339
18:00+20ene365337 0.0 1020122
21:00+16e3459100 0.0 102257
11 may, tue
tue1100:00+15e3461100 0.0 102258
03:00+14e3462100 0.0 102349
06:00+16ene2462100 0.0 1024116
09:00+21ene3447100 0.0 1025468
12:00+24e343794 0.0 10251818
15:00+24ene4335100 0.0 10262026
18:00+20ne485591 0.0 1026187
21:00+17ene2263100 0.0 102721
12 may, wed
wed1200:00+16e116237 0.0 102711
03:00+15e006682 0.0 102711
06:00+17e2265100 0.0 102874
09:00+21e345199 0.0 1028545
12:00+24ese443614 0.0 10282412
15:00+24se343235 0.0 10272560
18:00+22ese225044 0.0 102717
21:00+18se225940 0.0 102827
13 may, thu
thu1300:00+16se226284 0.0 102811
03:00+15ese2259100 0.0 102811
06:00+17ese256151 0.0 1028146
09:00+21se4643100 0.0 1028691
12:00+24se57355 0.0 10271776
15:00+24sse56345 0.0 10261867
18:00+22sse235035 0.0 102647
21:00+17sse33520 0.0 102629
14 may, fri
fri1400:00+16sse22565 0.0 102619
03:00+15sse33585 0.0 102629
06:00+17sse366132 0.0 1026157
09:00+22sse4645100 0.0 1026533
12:00+25s5635100 0.0 10251313
15:00+25s563893 0.0 10241476
18:00+22sse35545 0.0 102391
21:00+18sse465973 0.0 102375